G7TKI-13 Weather Reports


time (UTC)temp
C
wind
direction
speed
KPH
gust
KPH
rain 1hr
cm
rain 24hr
cm
rain mn
cm
humidity
%
barometer
mb
20260508005438 2 0.0 0.0 0.00 0.00 0.00 95 1020.2
20260508004436 2 0.0 0.0 0.00 0.00 0.00 95 1020.1
20260508003454 3 0.0 0.0 0.00 0.00 0.00 95 1020.2
20260508002431 3 0.0 0.0 0.00 0.00 0.00 95 1020.2
20260508001421 3 0.0 0.0 0.00 0.00 0.00 95 1020.4
20260508000413 3 0.0 0.0 0.00 0.00 0.00 95 1020.3
20260507235406 3 0.0 0.0 0.00 0.00 0.00 95 1020.4
20260507234356 3 0.0 0.0 0.00 0.00 0.00 95 1020.5
20260507233340 3 0.0 0.0 0.00 0.00 0.00 95 1020.4
20260507232338 4 0.0 0.0 0.00 0.00 0.00 94 1020.8
20260507231336 5 0.0 0.0 0.00 0.00 0.00 94 1020.7
20260507230402 5 0.0 0.0 0.00 0.00 0.00 94 1020.5
20260507225333 4 0.0 0.0 0.00 0.00 0.00 94 1020.6
20260507224316 5 0.0 0.0 0.00 0.00 0.00 94 1020.7
20260507223314 4 0.0 0.0 0.00 0.00 0.00 94 1020.5
20260507222308 5 0.0 0.0 0.00 0.00 0.00 93 1020.6
20260507221300 5 0.0 0.0 0.00 0.00 0.00 94 1020.6
20260507220252 5 0.0 0.0 0.00 0.00 0.00 93 1020.8
20260507215247 5 0.0 0.0 0.00 0.00 0.00 93 1020.7
20260507214245 5 0.0 0.0 0.00 0.00 0.00 93 1020.8
20260507213246 6 0.0 0.0 0.00 0.00 0.00 92 1020.8
20260507212243 6 0.0 0.0 0.00 0.00 0.00 92 1020.5
20260507211240 6 0.0 0.0 0.00 0.00 0.00 92 1020.6
20260507210237 6 0.0 0.0 0.00 0.00 0.00 91 1020.5
20260507205255 6 0.0 0.0 0.00 0.00 0.00 91 1020.4
20260507204233 7 0.0 0.0 0.00 0.00 0.00 91 1020.4
20260507203222 7 0.0 0.0 0.00 0.00 0.00 91 1020.5
20260507202220 8 0.0 0.0 0.00 0.00 0.00 90 1020.3
20260507201233 8 0.0 0.0 0.00 0.00 0.00 89 1020.1
20260507200204 8 0.0 0.0 0.00 0.00 0.00 89 1020.2
20260507195157 8 116 0.0 1.6 0.00 0.00 0.00 88 1020.0
20260507194140 9 0.0 0.0 0.00 0.00 0.00 86 1019.9
20260507193158 10 145 1.6 3.2 0.00 0.00 0.00 85 1020.0
20260507192158 10 154 0.0 1.6 0.00 0.00 0.00 84 1020.0
20260507191134 10 164 1.6 3.2 0.00 0.00 0.00 83 1019.8
20260507190133 10 134 1.6 3.2 0.00 0.00 0.00 82 1019.9
20260507185125 11 0.0 0.0 0.00 0.00 0.00 81 1020.0
20260507184116 11 69 3.2 3.2 0.00 0.00 0.00 80 1019.8
20260507183109 11 123 3.2 4.8 0.00 0.00 0.00 80 1019.7
20260507182039 11 136 1.6 1.6 0.00 0.00 0.00 79 1019.9
20260507181036 11 141 0.0 1.6 0.00 0.00 0.00 78 1019.6
20260507180029 11 147 6.4 6.4 0.00 0.00 0.00 77 1019.7
20260507175021 11 124 1.6 1.6 0.00 0.00 0.00 76 1019.8
20260507174013 11 165 3.2 4.8 0.00 0.00 0.00 75 1019.4
20260507172500 12 85 1.6 1.6 0.00 0.00 0.00 75 1019.4
20260507171452 12 254 6.4 9.7 0.00 0.00 0.00 73 1019.4
20260507170442 12 131 6.4 6.4 0.00 0.00 0.00 72 1019.5
20260507165438 12 175 6.4 11.3 0.00 0.00 0.00 73 1019.7
20260507164436 12 191 3.2 4.8 0.00 0.00 0.00 73 1019.7
20260507163434 12 96 3.2 6.4 0.00 0.00 0.00 72 1019.7
20260507162329 12 142 1.6 4.8 0.00 0.00 0.00 71 1019.6
20260507161316 12 141 1.6 3.2 0.00 0.00 0.00 72 1019.6
20260507160308 12 168 3.2 3.2 0.00 0.00 0.00 72 1019.6
20260507155301 12 113 1.6 3.2 0.00 0.00 0.00 72 1019.7
20260507154307 12 123 3.2 3.2 0.00 0.00 0.00 71 1019.6
20260507153246 12 0.0 0.0 0.00 0.00 0.00 71 1019.5
20260507152233 12 103 3.2 4.8 0.00 0.00 0.00 71 1019.7
20260507151228 12 95 3.2 6.4 0.00 0.00 0.00 72 1019.6
20260507150220 12 126 1.6 3.2 0.00 0.00 0.00 70 1019.6
20260507145212 13 96 1.6 1.6 0.00 0.00 0.00 68 1019.6
20260507144227 13 119 0.0 1.6 0.00 0.00 0.00 69 1019.6
20260507143157 13 132 1.6 1.6 0.00 0.00 0.00 66 1019.7
20260507142201 13 116 4.8 6.4 0.00 0.00 0.00 66 1019.9
20260507141138 15 145 1.6 1.6 0.00 0.00 0.00 63 1019.8
20260507140136 16 120 3.2 4.8 0.00 0.00 0.00 62 1019.7
20260507135134 14 170 3.2 6.4 0.00 0.00 0.00 66 1019.7
20260507134133 13 162 3.2 4.8 0.00 0.00 0.00 67 1019.8
20260507133124 13 0.0 0.0 0.00 0.00 0.00 70 1020.0
20260507132116 12 144 4.8 6.4 0.00 0.00 0.00 69 1019.8
20260507131129 13 22 1.6 1.6 0.00 0.00 0.00 71 1019.8
20260507125042 12 0.0 0.0 0.00 0.00 0.00 73 1020.0
20260507124039 12 136 1.6 1.6 0.00 0.00 0.00 73 1020.0
20260507123038 12 125 3.2 3.2 0.00 0.00 0.00 73 1020.0
20260507122035 12 0.0 0.0 0.00 0.00 0.00 71 1019.9
20260507121033 12 116 0.0 1.6 0.00 0.00 0.00 71 1019.9
20260507120048 12 110 0.0 1.6 0.00 0.00 0.00 69 1020.0
20260507115020 12 0.0 0.0 0.00 0.00 0.00 69 1020.1
20260507114012 13 134 0.0 1.6 0.00 0.00 0.00 69 1020.0
20260507112501 12 0.0 0.0 0.00 0.00 0.00 69 1020.1
20260507111442 13 0.0 0.0 0.00 0.00 0.00 69 1020.2
20260507110440 13 171 1.6 1.6 0.00 0.00 0.00 69 1020.3
20260507105438 13 74 3.2 3.2 0.00 0.00 0.00 67 1020.3
20260507104438 13 141 1.6 1.6 0.00 0.00 0.00 69 1020.1
20260507103433 13 0.0 0.0 0.00 0.00 0.00 67 1020.1
20260507102428 14 113 1.6 1.6 0.00 0.00 0.00 66 1020.4
20260507101440 13 0.0 0.0 0.00 0.00 0.00 68 1020.3
20260507100412 15 333 0.0 1.6 0.00 0.00 0.00 63 1020.2
20260507095405 15 142 0.0 1.6 0.00 0.00 0.00 66 1020.2
20260507094356 14 117 1.6 1.6 0.00 0.00 0.00 66 1020.0
20260507093340 15 0.0 0.0 0.00 0.00 0.00 66 1020.1
20260507092338 14 0.0 0.0 0.00 0.00 0.00 68 1020.2
20260507091336 13 0.0 0.0 0.00 0.00 0.00 70 1020.3
20260507090335 13 0.0 0.0 0.00 0.00 0.00 70 1020.3
20260507085333 13 357 1.6 1.6 0.00 0.00 0.00 71 1020.1
20260507084324 13 182 1.6 1.6 0.00 0.00 0.00 69 1020.1
20260507083336 13 0.0 0.0 0.00 0.00 0.00 71 1019.9
20260507082308 12 152 0.0 1.6 0.00 0.00 0.00 71 1020.0
20260507081300 11 0.0 0.0 0.00 0.00 0.00 77 1020.1
20260507080252 11 146 3.2 4.8 0.00 0.00 0.00 78 1020.0
20260507075241 11 182 3.2 3.2 0.00 0.00 0.00 77 1020.0
20260507074233 11 156 1.6 3.2 0.00 0.00 0.00 79 1020.0
20260507073223 10 350 0.0 1.6 0.00 0.00 0.00 80 1020.0
20260507072221 10 133 1.6 1.6 0.00 0.00 0.00 81 1019.9
20260507071213 10 0.0 0.0 0.00 0.00 0.00 83 1019.9
20260507070205 10 119 0.0 1.6 0.00 0.00 0.00 83 1019.8
20260507065156 9 139 0.0 1.6 0.00 0.00 0.00 84 1019.6
20260507064140 9 0.0 0.0 0.00 0.00 0.00 85 1019.7
20260507063158 8 0.0 0.0 0.00 0.00 0.00 85 1019.6
20260507062136 8 0.0 0.0 0.00 0.00 0.00 87 1019.7
20260507061154 8 0.0 0.0 0.00 0.00 0.00 88 1019.9
20260507060132 8 0.0 0.0 0.00 0.00 0.00 91 1019.6
20260507055121 7 0.0 0.0 0.00 0.00 0.00 92 1019.6
20260507054116 7 8 0.0 1.6 0.00 0.00 0.00 94 1019.5
20260507053108 6 0.0 0.0 0.00 0.00 0.00 94 1019.3
20260507052120 6 0.0 0.0 0.00 0.00 0.00 94 1019.4
20260507051053 6 0.0 0.0 0.00 0.00 0.00 94 1019.3
20260507050045 6 0.0 0.0 0.00 0.00 0.00 94 1019.3
20260507045043 6 0.0 0.0 0.00 0.00 0.00 94 1019.2
20260507044040 6 0.0 0.0 0.00 0.00 0.00 94 1019.3
20260507043038 6 0.0 0.0 0.00 0.00 0.00 93 1019.2
20260507042116 5 0.0 0.0 0.00 0.00 0.00 93 1019.3
20260507041035 5 0.0 0.0 0.00 0.00 0.00 93 1019.2
20260507040033 6 0.0 0.0 0.00 0.00 0.00 93 1018.9
20260507035040 6 0.0 0.0 0.00 0.00 0.00 92 1018.9
20260507034013 6 0.0 0.0 0.00 0.00 0.00 92 1018.9
20260507032501 6 0.0 0.0 0.00 0.00 0.00 92 1019.1
20260507031532 6 0.0 0.0 0.00 0.00 0.00 92 1019.1
20260507030444 6 0.0 0.0 0.00 0.00 0.00 92 1019.1
20260507025437 6 0.0 0.0 0.00 0.00 0.00 92 1019.0
20260507024455 6 0.0 0.0 0.00 0.00 0.00 92 1019.1
20260507023454 6 0.0 0.0 0.00 0.00 0.00 92 1018.9
20260507022428 6 0.0 0.0 0.00 0.00 0.00 92 1019.0
20260507021420 6 0.0 0.0 0.00 0.00 0.00 92 1019.1
20260507020412 7 0.0 0.0 0.00 0.00 0.00 92 1019.0
20260507015405 7 0.0 0.0 0.00 0.00 0.00 92 1018.7
20260507014356 6 0.0 0.0 0.00 0.00 0.00 92 1018.6
20260507013348 6 0.0 0.0 0.00 0.00 0.00 92 1018.8
20260507012338 7 0.0 0.0 0.00 0.00 0.00 91 1018.8
20260507011332 7 0.0 0.0 0.00 0.00 0.00 91 1018.6
20260507010325 7 0.0 0.0 0.00 0.00 0.00 91 1018.9